Regional Weather Roundup
Issued by NWS

Home | Current Version | Previous Version | Graphics & Text | Print | Product List | Glossary Off
Versions: 1 2 3 4 5 6 7 8 9 10 11 12 13 14 15 16 17 18 19 20 21 22 23 24 25 26 27 28 29 30 31 32 33 34 35 36 37 38 39 40 41 42 43 44 45 46 47 48 49 50

000
ASUS43 KTOP 061959
RWRKS

WEATHER ROUNDUP FOR KANSAS
NATIONAL WEATHER SERVICE GOODLAND KS
300 PM CDT WED MAY 06 2015

NOTE:  "FAIR" INDICATES FEW OR NO CLOUDS BELOW 12,000 FEET WITH NO
SIGNIFICANT WEATHER AND/OR OBSTRUCTIONS TO VISIBILITY.

KSZ001>006-013>018-027>032-041>047-062100-
NORTHWEST KANSAS

CITY           SKY/WX    TMP DP  RH WIND       PRES   REMARKS
GOODLAND       CLOUDY    61  57  87 S9        29.66F
HAYS           PTSUNNY   72  57  60 S26G37    29.60F THUNDER
HILL CITY      CLOUDY    74  57  55 SW18G31   29.62F
RUSSELL        PTSUNNY   77  61  57 S33G46    29.61F
$$

KSZ061>065-074>080-084>089-062100-
SOUTHWEST KANSAS

CITY           SKY/WX    TMP DP  RH WIND       PRES   REMARKS
DODGE CITY     MOSUNNY   80  51  36 S24G37    29.67F
ELKHART          N/A     78  49  36 SW13        N/A
GARDEN CITY    PTSUNNY   74  54  49 S18G32    29.66F
GREAT BEND     PTSUNNY   77  63  61 S28G40    29.65F
LIBERAL        MOSUNNY   79  54  41 S29       29.70F
$$

KSZ066>073-081>083-090>101-062100-
SOUTHEAST KANSAS

CITY           SKY/WX    TMP DP  RH WIND       PRES   REMARKS
CHANUTE        CLOUDY    71  63  75 S14       29.92F
HUTCHINSON     PTSUNNY   75  66  73 S25G33    29.73F
MEDICINE LODGE   N/A     79  63  57 S26G40    29.71F
NEWTON         CLOUDY    70  61  73 S22G31    29.82F
PARSONS        CLOUDY    73  64  73 S10G21    29.93F
WICHITA INTL   CLOUDY    74  66  76 S24G33    29.79F
WICHITA JABRA  CLOUDY    72  64  76 S24G33    29.80F
WINFIELD       CLOUDY    73  66  78 S24G31    29.85S
$$

KSZ007>012-019>026-033>040-048>060-102>105-062100-
NORTHEAST KANSAS

CITY           SKY/WX    TMP DP  RH WIND       PRES   REMARKS
CONCORDIA      CLOUDY    69  62  78 SE28G39   29.73F
EMPORIA        CLOUDY    67  62  84 S23G31    29.87F
LAWRENCE       RAIN      66  59  78 S23G37    29.93R
MANHATTAN      CLOUDY    71  63  75 S21G33    29.81F
OLATHE IND     LGT RAIN  64  59  83 S17G28    29.96S
OLATHE EXE     LGT RAIN  65  58  78 S18G36    29.96R
SALINA         CLOUDY    74  64  71 S22G35    29.74F
TOPEKA BILLARD CLOUDY    71  60  68 SE23G40   29.89F
TOPEKA FORBES  CLOUDY    70  60  70 SE20G30   29.88F
$$


USA.gov is the U.S. government's official web portal to all federal, state and local government web resources and services.